COSMOS 1261 DEB, 27901

Orbit data source: Space-Track

COSMOS 1261 DEB, 27901 is space debris originally from a launch on Tue, 31 Mar 1981 UTC launched from the Plesetsk Missile And Space Complex (PKMTR). Debris objects in space refer to the collection of defunct objects orbiting the Earth. Examples of debris include non-operational satellites, rocket bodies, and fragments generated from explosions, collisions, or faulty payload assembly.

Loading next visibility...
COSMOS 1261 DEB details
Identifier
27901, 1981-031J
Orbit
Molniya
Last TLE update18 hours ago
Origin
Flag of CISPVO (CIS)
ManufacturerUnknown
MissionSpacecraft
Bus & MotorUnknown
MassUnknown
Launch date (UTC)
1981-03-31 (44 years ago)
Launch vehicleUnknown
Launch site
Plesetsk Missile And Space Complex (PKMTR)
Object type
Payload
Rocket body
Debris
Shape & HBRUnknown
Radar Cross SectionMedium (>0.1 m² and <1 m²)

Expand to show TLE details & history

TLE from 18 hours ago
0 COSMOS 1261 DEB
1 27901U 81031J   25035.53676557  .00008312  00000-0  34911-2 0  9995
2 27901  62.2605  90.1749 7490585  49.9091 354.8235  2.02146056170859
Epoch: 2025-02-04T12:52Z
Definitive object data (Epoch: 2025-02-04T12:52:56.545Z)
Latitude-0.00027°
Longitude122.04849°
Altitude1,417.898 km
Speed9.337 km/s
True Right ascension06h 00m 53s
True Declination0° 00' 01"
Sunlit
Object was in full shadow at TLE epoch
Visualization TLE readout
Latitude-42.35753°
Longitude-29.49028°
Altitude39,865.799 km
Speed1.468 km/s
Apparent Right ascension20h 01m 38s
Apparent Declination-42° 06' 25"
Sunlit
Object is in daylight
Visualization observer readout
Local Sidereal Time08:50:06
Azimuth107.409° ESE
Elevation-80.606°
Doppler factor1
Orbital elements
Apogee altitude39,832.977 km
Perigee altitude251.879 km
Semi-major axis26,420.565 km
Eccentricity0.7490585
Inclination62.2605°
RAAN90.1749°
Arg. of periapsis49.9091°
True anomaly311.17603°
Mean anomaly354.8235°
Eccentric anomaly340.49052°
Mean motion0.50539 °/min
BSTAR0.0034911
Orbital period712.32 mins
Loading maneuver chart data...
Loading historical data...
Loading historical data...
Loading historical data...
Loading historical data...
Loading historical data...
Loading historical data...
Loading historical data...

COSMOS 1261 DEB Visibility forecast

Observer location: undefined°, undefined

Span
Click to sort rows by Start time (UTC) header in descending order
Start Az.
Max El. time (UTC)
Max El. Az.
Max El.
End time (UTC)
End Az.
221 mins2025-02-05 12:58:52.791Z333.216° NNW2025-02-05 13:07:52.791Z59.903° ENE42.05°2025-02-05 16:39:52.791Z173.222° S
|